Weather History for Monett, MO

Change the Weather History Date:

Tuesday, February 5, 2013

  Actual Average (KJLN) Record (KJLN)
Temperature  
Mean Temperature 45 °F 37 °F  
Max Temperature 60 °F 48 °F 69 °F (1963)
Min Temperature 30 °F 27 °F 1 °F (1979)
Degree Days  
Heating Degree Days 20 28  
Month to date heating degree days 141  
Since 1 July heating degree days 2690  
Cooling Degree Days 0 0  
Month to date cooling degree days 0  
Year to date cooling degree days 0  
Moisture  
Dew Point 32 °F    
Average Humidity 67    
Maximum Humidity 100    
Minimum Humidity 34    
Precipitation  
Precipitation 0.00 in 0.07 in 1.21 in (1964)
Month to date precipitation 0.33  
Year to date precipitation 2.36  
Sea Level Pressure  
Sea Level Pressure 29.98 in    
Wind  
Wind Speed 4 mph (East)    
Max Wind Speed 15 mph    
Max Gust Speed 21 mph    
Visibility 10 miles    
Events      
T = Trace of Precipitation, MM = Missing Value Source: NWS Daily Summary

Daily Weather History Graph

Daily Weather History Graph

Search for Another Location

Airport:

Trip Planner

Search our weather history database for the weather conditions in past years. The results will help you decide how hot, cold, wet, or windy it might be!

Date:

Astronomy

Feb. 05, 2013 Rise Set
Actual Time 7:14 AM CST 5:46 PM CST
Civil Twilight 6:47 AM CST 6:13 PM CST
Nautical Twilight 6:16 AM CST 6:43 PM CST
Astronomical Twilight 5:46 AM CST 7:14 PM CST
Moon 2:54 AM CST (2/5) 1:06 PM CST (2/5)
Length of Visible Light 11h 25m
Length of Day
10h 31m
Waning Crescent, 26% of the Moon is Illuminated
Feb 5
Waning Crescent
Feb 10
New
Feb 17
First Quarter
Feb 25
Full
Mar 4
Last Quarter

Hourly Weather History & Observations

Time (CST) Temp. Windchill Dew Point Humidity Pressure Visibility Wind Dir Wind Speed Gust Speed Precip Events Conditions
12:15 AM 33.8 °F 30.8 °F 30.2 °F 87% 29.94 in 10.0 mi NE 3.5 mph - N/A   Clear
12:35 AM 33.8 °F 30.8 °F 30.2 °F 87% 29.94 in 10.0 mi ENE 3.5 mph - N/A   Clear
12:55 AM 32.0 °F - 30.2 °F 93% 29.93 in 10.0 mi Calm Calm - N/A   Clear
1:15 AM 32.0 °F - 30.2 °F 93% 29.93 in 10.0 mi Calm Calm - N/A   Clear
1:35 AM 32.0 °F - 30.2 °F 93% 29.92 in 10.0 mi Calm Calm - N/A   Clear
1:55 AM 32.0 °F - 30.2 °F 93% 29.93 in 10.0 mi Calm Calm - N/A   Clear
2:15 AM 32.0 °F 27.5 °F 30.2 °F 93% 29.92 in 10.0 mi SE 4.6 mph - N/A   Clear
2:35 AM 32.0 °F - 30.2 °F 93% 29.92 in 10.0 mi Calm Calm - N/A   Clear
2:55 AM 32.0 °F 28.7 °F 30.2 °F 93% 29.92 in 10.0 mi SE 3.5 mph - N/A   Clear
3:15 AM 32.0 °F 27.5 °F 30.2 °F 93% 29.91 in 10.0 mi SE 4.6 mph - N/A   Clear
3:35 AM 32.0 °F - 30.2 °F 93% 29.91 in 10.0 mi Calm Calm - N/A   Clear
3:55 AM 32.0 °F - 30.2 °F 93% 29.91 in 10.0 mi Calm Calm - N/A   Clear
4:15 AM 30.2 °F - 30.2 °F 100% 29.92 in 10.0 mi Calm Calm - N/A   Clear
4:35 AM 32.0 °F - 30.2 °F 93% 29.92 in 10.0 mi Calm Calm - N/A   Clear
4:55 AM 32.0 °F 28.7 °F 30.2 °F 93% 29.92 in 10.0 mi ESE 3.5 mph - N/A   Clear
5:15 AM 32.0 °F 27.5 °F 30.2 °F 93% 29.92 in 10.0 mi SE 4.6 mph - N/A   Clear
5:35 AM 32.0 °F 27.5 °F 30.2 °F 93% 29.92 in 10.0 mi SE 4.6 mph - N/A   Clear
5:55 AM 32.0 °F 26.4 °F 30.2 °F 93% 29.93 in 10.0 mi SE 5.8 mph - N/A   Clear
6:15 AM 32.0 °F 26.4 °F 30.2 °F 93% 29.93 in 10.0 mi SSE 5.8 mph - N/A   Clear
6:35 AM 32.0 °F 28.7 °F 30.2 °F 93% 29.93 in 10.0 mi SSE 3.5 mph - N/A   Clear
6:55 AM 33.8 °F 29.6 °F 30.2 °F 87% 29.93 in 10.0 mi SSE 4.6 mph - N/A   Clear
7:15 AM 33.8 °F 28.6 °F 30.2 °F 87% 29.94 in 10.0 mi South 5.8 mph - N/A   Clear
7:35 AM 33.8 °F 29.6 °F 30.2 °F 87% 29.95 in 10.0 mi South 4.6 mph - N/A   Clear
7:55 AM 35.6 °F 30.7 °F 30.2 °F 81% 29.95 in 10.0 mi SSE 5.8 mph - N/A   Clear
8:15 AM 37.4 °F 34.9 °F 32.0 °F 81% 29.96 in 10.0 mi South 3.5 mph - N/A   Clear
8:35 AM 39.2 °F 37.0 °F 33.8 °F 81% 29.97 in 10.0 mi SSW 3.5 mph - N/A   Clear
8:55 AM 41.0 °F 39.0 °F 33.8 °F 76% 29.98 in 10.0 mi SSW 3.5 mph - N/A   Clear
9:15 AM 42.8 °F 40.1 °F 35.6 °F 76% 29.99 in 10.0 mi SSW 4.6 mph - N/A   Clear
10:15 AM 50.0 °F - 37.4 °F 62% 30.00 in 10.0 mi SW 8.1 mph - N/A   Clear
10:55 AM 53.6 °F - 37.4 °F 54% 30.00 in 10.0 mi SW 10.4 mph - N/A   Clear
11:15 AM 53.6 °F - 37.4 °F 54% 30.00 in 10.0 mi WSW 9.2 mph - N/A   Clear
11:35 AM 55.4 °F - 37.4 °F 51% 30.00 in 10.0 mi WSW 9.2 mph - N/A   Clear
11:55 AM 57.2 °F - 37.4 °F 48% 30.00 in 10.0 mi WSW 10.4 mph - N/A   Clear
12:15 PM 59.0 °F - 32.0 °F 36% 29.99 in 10.0 mi WSW 11.5 mph 20.7 mph N/A   Clear
12:55 PM 60.8 °F - 32.0 °F 34% 29.98 in 10.0 mi West 13.8 mph - N/A   Clear
1:15 PM 60.8 °F - 32.0 °F 34% 29.98 in 10.0 mi WNW 11.5 mph 17.3 mph N/A   Clear
1:35 PM 60.8 °F - 32.0 °F 34% 29.97 in 10.0 mi WNW 15.0 mph 20.7 mph N/A   Clear
1:55 PM 60.8 °F - 32.0 °F 34% 29.97 in 10.0 mi NW 10.4 mph - N/A   Clear
2:15 PM 59.0 °F - 32.0 °F 36% 29.97 in 10.0 mi NW 9.2 mph - N/A   Clear
2:35 PM 59.0 °F - 32.0 °F 36% 29.97 in 10.0 mi NW 12.7 mph 17.3 mph N/A   Clear
2:55 PM 59.0 °F - 32.0 °F 36% 29.98 in 10.0 mi WNW 10.4 mph - N/A   Clear
3:15 PM 59.0 °F - 32.0 °F 36% 29.99 in 10.0 mi WNW 11.5 mph 17.3 mph N/A   Clear
3:55 PM 59.0 °F - 33.8 °F 39% 29.99 in 10.0 mi NW 8.1 mph - N/A   Clear
4:15 PM 57.2 °F - 32.0 °F 38% 29.99 in 10.0 mi NW 5.8 mph - N/A   Clear
4:55 PM 55.4 °F - 33.8 °F 44% 29.99 in 10.0 mi WNW 3.5 mph - N/A   Clear
5:15 PM 55.4 °F - 33.8 °F 44% 29.99 in 10.0 mi Calm Calm - N/A   Clear
5:35 PM 53.6 °F - 33.8 °F 47% 30.00 in 10.0 mi Calm Calm - N/A   Clear
5:55 PM 53.6 °F - 33.8 °F 47% 30.00 in 10.0 mi Calm Calm - N/A   Clear
6:15 PM 51.8 °F - 33.8 °F 50% 30.00 in 10.0 mi NNW 3.5 mph - N/A   Clear
6:35 PM 50.0 °F - 33.8 °F 54% 30.01 in 10.0 mi North 3.5 mph - N/A   Clear
6:55 PM 50.0 °F - 32.0 °F 50% 30.02 in 10.0 mi NNE 3.5 mph - N/A   Clear
7:15 PM 50.0 °F - 32.0 °F 50% 30.03 in 10.0 mi NE 3.5 mph - N/A   Clear
7:35 PM 50.0 °F - 32.0 °F 50% 30.03 in 10.0 mi Calm Calm - N/A   Clear
7:55 PM 50.0 °F - 32.0 °F 50% 30.04 in 10.0 mi Calm Calm - N/A   Clear
8:15 PM 48.2 °F - 32.0 °F 54% 30.04 in 10.0 mi NE 3.5 mph - N/A   Clear
8:35 PM 48.2 °F - 32.0 °F 54% 30.04 in 10.0 mi NE 3.5 mph - N/A   Clear
8:55 PM 44.6 °F - 32.0 °F 61% 30.05 in 10.0 mi Calm Calm - N/A   Clear
9:15 PM 46.4 °F 44.3 °F 32.0 °F 57% 30.05 in 10.0 mi NE 4.6 mph - N/A   Clear
9:35 PM 46.4 °F 44.3 °F 32.0 °F 57% 30.05 in 10.0 mi NNE 4.6 mph - N/A   Clear
9:55 PM 42.8 °F 39.3 °F 32.0 °F 66% 30.06 in 10.0 mi NE 5.8 mph - N/A   Clear
10:15 PM 42.8 °F 38.0 °F 32.0 °F 66% 30.05 in 10.0 mi NE 8.1 mph - N/A   Clear
10:35 PM 42.8 °F 40.1 °F 32.0 °F 66% 30.06 in 10.0 mi NE 4.6 mph - N/A   Clear
10:55 PM 42.8 °F 39.3 °F 32.0 °F 66% 30.06 in 10.0 mi ENE 5.8 mph - N/A   Clear
11:15 PM 42.8 °F 39.3 °F 32.0 °F 66% 30.07 in 10.0 mi East 5.8 mph - N/A   Clear
11:35 PM 42.8 °F 39.3 °F 32.0 °F 66% 30.07 in 10.0 mi East 5.8 mph - N/A   Clear
11:55 PM 41.0 °F 35.8 °F 32.0 °F 70% 30.07 in 10.0 mi ENE 8.1 mph - N/A   Clear